sat.trackr.live / text

‹ back to catalog

STARLINK-30978

NORAD 58490 · 2023-186T

PAYLOAD ACTIVE UNKNOWN

§ Identity

Operator
Country
US
Launch date
2023-12-03
Launch site
AFETR
Launch vehicle
Mass (kg)
RCS (m²)

Purposes: comms

External: N2YO · Heavens-Above · Gunter

§ Orbital elements

Epoch: 2026-09-20T09:18:36.237888Z

Period
94.27 min
Inclination
43.0057°
Eccentricity
0.0002161
Mean motion
15.27579246 rev/d
Perigee alt
481.6 km
Apogee alt
484.5 km
Semi-major
6,861.2 km
B*
5.1923e-5
RAAN
44.0181°
Arg perigee
269.4253°
Mean anomaly
90.6351°
Rev number
15,566

§ Raw data

STARLINK-309781 58490U 23186T   26263.38791942  .00001167  00000+0  51923-4 0  99962 58490  43.0057  44.0181 0002161 269.4253  90.6351 15.27579246155661

JSON: /api/v1/satellites/58490 · /tle

For live sub-satellite position, see the globe view (requires WebGL).

§ Visibility from observer

Set your observer location to see the next 7 days of passes ≥ 10°. The values pass through the URL so the page stays shareable.

No JS? Fill the form by hand. The geolocation button needs JavaScript.